Weather History for BGKK - November, 2014

Change the Weather History Date:

Tuesday, November 18, 2014

  Actual Average Record
Temperature  
Mean Temperature 32 °F -  
Max Temperature 33 °F 25 °F 35 °F (1999)
Min Temperature 30 °F 22 °F 12 °F (2006)
Degree Days  
Heating Degree Days 34    
Moisture  
Dew Point 28 °F    
Average Humidity 86    
Maximum Humidity 96    
Minimum Humidity 68    
Precipitation  
Precipitation 0.00 in - - ()
Sea Level Pressure  
Sea Level Pressure 29.64 in    
Wind  
Wind Speed 2 mph ()    
Max Wind Speed 7 mph    
Max Gust Speed -    
Visibility 5.2 miles    
Events Rain , Snow    
Averages and records for this station are not official NWS values.
T = Trace of Precipitation, MM = Missing Value Source: Averaged Metar Reports

Daily Weather History Graph

Daily Weather History Graph

Search for Another Location

Airport or City:

Trip Planner

Search our weather history database for the weather conditions in past years. The results will help you decide how hot, cold, wet, or windy it might be!

Date:

Astronomy

Nov. 18, 2014 Rise Set
Actual Time 8:21 AM WGT 2:04 PM WGT
Civil Twilight 7:13 AM WGT 3:12 PM WGT
Nautical Twilight 6:08 AM WGT 4:18 PM WGT
Astronomical Twilight 5:08 AM WGT 5:18 PM WGT
Moon 2:24 AM WGT (11/18) 1:32 PM WGT (11/18)
Length of Visible Light 7h 58m
Length of Day
5h 42m
Waning Crescent, 16% of the Moon is Illuminated
Nov 18
Waning Crescent
Nov 22
New
Nov 29
First Quarter
Dec 6
Full
Dec 14
Last Quarter

Hourly Weather History & Observations

Time (WGT) Temp. Windchill Dew Point Humidity Pressure Visibility Wind Dir Wind Speed Gust Speed Precip Events Conditions
12:00 AM 32 °F - 26 °F 68% 29.62 in 22 mi SW 4.6 mph - -  
3:00 AM 31 °F - 28 °F 82% 29.63 in 22 mi WSW 1.2 mph - -  
6:00 AM 30 °F - 26 °F 80% 29.68 in 22 mi South 2.3 mph - -  
7:50 AM 30.2 °F - 28.4 °F 93% 29.68 in 6.2 mi Variable 1.2 mph - N/A   Scattered Clouds
8:50 AM 30.2 °F - 26.6 °F 86% 29.68 in 6.2 mi West 2.3 mph - N/A   Scattered Clouds
9:00 AM 30 °F - 27 °F 83% 29.70 in 22 mi SSW 1.2 mph - -  
9:50 AM 30.2 °F - 28.4 °F 93% 29.68 in 6.2 mi West 2.3 mph - N/A   Scattered Clouds
10:50 AM 30.2 °F - 26.6 °F 86% 29.68 in 6.2 mi ESE 2.3 mph - N/A   Scattered Clouds
11:50 AM 30.2 °F - 28.4 °F 93% 29.68 in 6.2 mi Variable 1.2 mph - N/A   Mostly Cloudy
12:00 PM 31 °F - 28 °F 84% 29.70 in 22 mi SSW 1.2 mph - -  
12:50 PM 32.0 °F - 28.4 °F 87% 29.68 in 6.2 mi Variable 1.2 mph - N/A   Mostly Cloudy
1:50 PM 32.0 °F 28.7 °F 28.4 °F 87% 29.68 in 6.2 mi ESE 3.5 mph - N/A   Mostly Cloudy
2:50 PM 32.0 °F - 28.4 °F 87% 29.65 in 6.2 mi Variable 1.2 mph - N/A   Mostly Cloudy
3:00 PM 31 °F - 27 °F 81% 29.68 in 22 mi South 1.2 mph - -   Scattered Clouds
3:50 PM 32.0 °F - 28.4 °F 87% 29.65 in 6.2 mi South 1.2 mph - N/A   Mostly Cloudy
4:50 PM 32.0 °F - 28.4 °F 87% 29.65 in 6.2 mi West 2.3 mph - N/A   Unknown
5:50 PM 33.8 °F - 28.4 °F 81% 29.65 in 6.2 mi NNW 2.3 mph - N/A   Unknown
6:00 PM 33 °F - 27 °F 71% 29.67 in 22 mi North 2.3 mph - -  
6:50 PM 33.8 °F 27.7 °F 28.4 °F 81% 29.62 in 6.2 mi ENE 6.9 mph - N/A Rain Light Rain Showers
7:50 PM 32.0 °F - 30.2 °F 93% 29.62 in 1.7 mi NW 2.3 mph - N/A Snow Light Snow
8:50 PM 32.0 °F 26.4 °F 30.2 °F 93% 29.59 in 2.8 mi WNW 5.8 mph - N/A Snow Light Snow
9:00 PM 31 °F - 30 °F 96% 29.60 in 2 mi WNW 5.8 mph - - Snow Light Snow
9:50 PM 32.0 °F - 30.2 °F 93% 29.56 in - WSW 2.3 mph - N/A Snow Light Snow
10:50 PM 32.0 °F 27.5 °F 30.2 °F 93% 29.50 in - WSW 4.6 mph - N/A Snow Light Snow
11:50 PM 32.0 °F 27.5 °F 30.2 °F 93% 29.50 in 1.9 mi West 4.6 mph - N/A Snow Light Snow